Weather History for TJSJ - April, 2012

Change the Weather History Date:

Monday, April 30, 2012

  Actual Average Record
Temperature  
Mean Temperature 80 °F 81 °F  
Max Temperature 85 °F 87 °F 94 °F (1995)
Min Temperature 75 °F 75 °F 68 °F (1929)
Degree Days  
Heating Degree Days 0 0  
Month to date heating degree days 0 0  
Since 1 July heating degree days 0 0  
Cooling Degree Days 15 16  
Month to date cooling degree days 473 459  
Year to date cooling degree days 1664 1641  
Growing Degree Days 30 (Base 50)    
Moisture  
Dew Point 72 °F    
Average Humidity 79    
Maximum Humidity 97    
Minimum Humidity 61    
Precipitation  
Precipitation 0.28 in 0.20 in 2.95 in (1986)
Month to date precipitation 5.30 4.68  
Year to date precipitation 20.27 12.78  
Snow  
Snow 0.00 in 0.00 in - ()
Month to date snowfall 0.0 0.0  
Since 1 July snowfall 0.0 0.0  
Snow Depth 0.00 in    
Sea Level Pressure  
Sea Level Pressure 29.98 in    
Wind  
Wind Speed 8 mph (East)    
Max Wind Speed 20 mph    
Max Gust Speed 24 mph    
Visibility 9 miles    
Events Rain    
T = Trace of Precipitation, MM = Missing Value Source: NWS Daily Summary

Daily Weather History Graph

Daily Weather History Graph

Search for Another Location

Airport or City:

Trip Planner

Search our weather history database for the weather conditions in past years. The results will help you decide how hot, cold, wet, or windy it might be!

Date:

Astronomy

Apr. 30, 2012 Rise Set
Actual Time 5:57 AM AST 6:45 PM AST
Civil Twilight 5:34 AM AST 7:08 PM AST
Nautical Twilight 5:07 AM AST 7:35 PM AST
Astronomical Twilight 4:40 AM AST 8:02 PM AST
Moon 1:27 PM AST (4/30) 1:26 AM AST (4/30)
Length of Visible Light 13h 33m
Length of Day
12h 48m
Waxing Gibbous, 63% of the Moon is Illuminated
Apr 30
Waxing Gibbous
May 5
Full
May 12
Last Quarter
May 20
New
May 28
First Quarter

Hourly Weather History & Observations

Time (AST) Temp. Heat Index Dew Point Humidity Pressure Visibility Wind Dir Wind Speed Gust Speed Precip Events Conditions
12:56 AM 75.9 °F - 71.1 °F 85% 30.00 in 9.0 mi SE 4.6 mph - 0.01 in Rain Light Rain
1:56 AM 75.9 °F - 73.0 °F 91% 29.97 in 5.0 mi East 4.6 mph - 0.08 in Rain Rain
2:56 AM 75.9 °F - 71.4 °F 86% 29.96 in 10.0 mi ESE 5.8 mph - 0.01 in   Scattered Clouds
3:56 AM 75.9 °F - 72.0 °F 87% 29.95 in 10.0 mi East 5.8 mph - N/A   Scattered Clouds
4:56 AM 75.0 °F - 68.4 °F 80% 29.97 in 10.0 mi ESE 5.8 mph - N/A   Scattered Clouds
5:56 AM 75.0 °F - 72.0 °F 90% 29.98 in 10.0 mi ESE 3.5 mph - N/A   Scattered Clouds
6:56 AM 77.0 °F - 72.0 °F 84% 30.00 in 10.0 mi Calm Calm - N/A   Scattered Clouds
7:56 AM 80.1 °F 83.8 °F 72.0 °F 76% 30.01 in 10.0 mi East 6.9 mph - N/A   Scattered Clouds
8:56 AM 77.0 °F - 73.9 °F 90% 30.03 in 10.0 mi East 11.5 mph - 0.00 in Rain Light Rain
9:56 AM 82.0 °F 84.9 °F 68.0 °F 62% 30.02 in 10.0 mi East 11.5 mph - 0.00 in   Mostly Cloudy
10:56 AM 82.0 °F 85.5 °F 69.1 °F 65% 30.01 in 10.0 mi East 9.2 mph - N/A   Mostly Cloudy
11:56 AM 80.1 °F 83.6 °F 71.1 °F 74% 30.01 in 10.0 mi East 11.5 mph - N/A   Mostly Cloudy
12:56 PM 84.0 °F 88.4 °F 70.0 °F 63% 29.99 in 10.0 mi ENE 11.5 mph - N/A   Mostly Cloudy
1:56 PM 82.0 °F 86.3 °F 71.1 °F 69% 29.97 in 10.0 mi SSE 8.1 mph - N/A   Mostly Cloudy
2:10 PM 78.8 °F - 73.4 °F 83% 29.98 in 2.0 mi East 10.4 mph - 0.06 in Rain Heavy Rain
2:21 PM 77.0 °F - 73.4 °F 89% 29.97 in 6.0 mi ENE 9.2 mph 17.3 mph 0.14 in Rain Light Rain
2:56 PM 78.1 °F - 73.0 °F 84% 29.96 in 8.0 mi NNE 6.9 mph - 0.16 in Rain Light Rain
3:56 PM 80.1 °F 85.8 °F 77.0 °F 90% 29.95 in 10.0 mi East 9.2 mph - 0.01 in   Mostly Cloudy
4:56 PM 79.0 °F - 77.0 °F 94% 29.95 in 10.0 mi Calm Calm - 0.00 in   Mostly Cloudy
5:56 PM 79.0 °F - 73.0 °F 82% 29.95 in 10.0 mi East 9.2 mph - N/A   Mostly Cloudy
6:56 PM 78.1 °F - 73.0 °F 84% 29.96 in 10.0 mi East 10.4 mph - N/A   Scattered Clouds
7:56 PM 77.0 °F - 72.0 °F 84% 29.98 in 10.0 mi East 8.1 mph - N/A   Scattered Clouds
8:56 PM 77.0 °F - 72.0 °F 84% 29.99 in 10.0 mi ENE 11.5 mph - 0.00 in Rain Light Rain
9:56 PM 77.0 °F - 72.0 °F 84% 29.99 in 10.0 mi East 8.1 mph - 0.01 in   Scattered Clouds
10:56 PM 77.0 °F - 72.0 °F 84% 30.00 in 10.0 mi East 10.4 mph - N/A   Scattered Clouds
11:56 PM 77.0 °F - 70.0 °F 79% 30.00 in 10.0 mi East 9.2 mph - N/A   Scattered Clouds